GFSCGP_con_sbcape_348.txt.gz
CAPE
218 1 33 27 36 150 117 76 142 190 119 111 53 81 109 100 29 23 11 41 137 226 0 0 0 0 0 0 0 0 0 0 0 0 0 0 0 0 0 0 115 90 0 186
4 5 27 148 118 45 92 95 94 49 185 150 177 160 402 225 49 12 0 3 97 134 158 0 0 0 0 0 0 0 0 0 3 5 0 0 0 0 0 0 5 177 202 320
7 37 66 216 106 171 47 41 0 4 206 124 13 0 351 345 114 19 56 9 96 123 223 97 0 0 0 0 0 0 0 0 13 3 0 0 0 0 0 0 12 369 407 581
22 110 355 305 322 138 110 29 39 128 121 32 67 7 69 271 253 113 122 145 111 236 261 162 177 0 0 0 0 0 0 24 1 0 0 0 0 0 0 0 43 621 830 849
281 0 0 24 35 9 0 0 2 11 0 0 13 0 0 11 78 0 0 47 126 409 417 80 288 57 0 0 0 0 0 18 45 22 0 0 0 0 52 606 1063 1194 1231 1152
113 0 0 81 151 32 0 0 0 1 0 0 0 0 0 0 0 0 0 138 353 418 381 273 264 169 307 4 0 0 1 92 59 83 0 0 0 13 511 489 724 514 158 115
0 0 0 72 84 0 0 0 2 2 2 1 0 0 0 0 0 0 0 5 75 259 416 434 329 215 570 205 34 32 0 18 34 0 49 0 67 176 293 349 51 61 2 13
1 10 34 38 2 0 0 0 0 0 0 0 0 0 0 0 0 0 0 38 148 359 455 409 336 404 863 990 646 133 17 71 94 36 79 170 158 156 87 43 37 47 50 35
35 46 19 19 21 0 0 0 0 0 0 0 0 0 0 0 0 0 0 102 103 487 700 542 561 591 803 1009 1072 760 415 232 344 143 4 161 16 8 6 26 32 30 36 26
35 9 0 0 0 0 0 0 0 0 0 0 0 0 0 0 0 0 0 115 173 153 358 564 721 728 772 659 396 417 156 5 32 471 190 125 0 0 0 0 0 4 0 17
0 0 0 0 0 0 0 0 0 0 0 0 0 0 0 0 0 0 0 153 346 444 742 1062 1063 952 894 847 723 671 801 793 763 863 336 134 27 0 3 2 0 1 0 0
15 0 0 0 0 0 0 0 0 0 0 0 0 0 0 0 0 0 7 464 715 826 823 710 751 997 926 669 509 331 185 219 641 570 744 406 213 156 90 4 0 0 0 0
0 0 0 0 0 0 0 0 0 0 0 0 0 0 0 0 0 113 936 1035 936 758 653 664 622 691 627 300 63 0 31 8 32 272 545 596 442 286 46 1 11 1 0 0
0 0 0 0 0 0 0 0 0 0 0 0 0 0 0 17 314 846 1001 892 884 875 635 503 520 568 336 110 4 0 0 0 0 73 576 935 878 289 16 80 2 1 0 2
0 0 0 0 0 0 0 0 0 0 0 0 0 0 1 5 56 308 797 1016 1106 1177 762 477 438 564 221 47 0 0 0 0 0 24 751 898 510 289 256 129 52 74 52 14
0 0 0 0 0 0 0 0 0 0 0 0 0 0 0 0 0 0 2 3 301 1185 1149 723 592 493 387 96 0 0 0 0 0 56 249 582 511 436 326 312 190 103 82 90
0 0 0 0 0 0 0 0 0 0 0 0 0 0 0 0 3 284 231 55 127 1056 1079 863 738 678 499 154 6 0 0 0 1 0 2 124 336 541 238 173 82 86 102 11
0 0 0 0 0 0 0 0 0 0 0 0 0 0 0 1 219 163 0 0 0 0 333 799 755 512 449 138 0 0 0 0 0 2 1 1 0 7 134 0 2 1 2 6
0 0 0 0 0 0 0 0 0 0 0 0 0 0 0 159 84 143 19 22 1 0 0 0 0 588 345 127 0 0 0 0 1 0 0 1 1 1 1 1 1 1 1 1
0 0 0 0 0 0 0 0 0 0 0 0 0 0 0 0 0 0 0 0 0 0 0 589 769 416 339 113 0 0 0 0 0 0 0 0 0 0 1 0 0 0 1 0
0 0 0 0 0 0 0 0 0 0 0 3 0 0 0 0 0 0 0 0 0 0 65 523 703 500 473 28 1 1 0 0 0 0 0 0 0 0 0 0 0 0 3 9
0 0 0 0 0 0 0 0 0 0 0 0 0 0 0 0 0 0 0 0 0 34 284 843 742 599 450 150 43 39 5 1 0 0 0 0 0 0 2 7 2 0 8 11
0 0 0 0 0 0 0 0 0 0 0 0 0 0 0 0 0 0 0 0 0 0 18 1021 913 761 798 334 117 35 72 2 2 0 0 0 0 0 0 0 0 9 13 6
0 0 0 0 0 0 0 0 0 0 0 0 0 0 0 0 0 0 0 0 0 19 738 992 832 699 683 283 375 140 102 0 0 0 0 0 0 0 0 0 1 0 0 0
0 0 0 0 0 0 0 0 0 0 0 0 0 0 0 0 0 18 16 8 0 393 799 527 481 311 355 382 580 284 208 38 4 0 0 0 0 0 0 0 0 0 0 0
0 0 0 0 0 0 0 0 0 0 0 0 0 0 0 0 0 4 43 42 236 686 812 591 214 0 0 0 494 386 270 291 143 43 5 0 0 0 0 0 0 0 0 0

GFSCGP_con_sbcape_351.txt.gz
CAPE
46 83 4 38 14 98 68 83 47 89 30 4 56 41 50 19 88 30 8 0 45 15 0 0 0 0 0 0 0 0 0 3 18 0 0 0 0 0 0 0 34 46 17 37
0 26 0 41 83 62 39 51 23 12 73 46 102 47 81 313 143 89 17 10 25 81 74 0 0 0 0 0 0 0 1 5 45 40 20 3 0 0 0 0 0 102 80 0
0 0 56 210 145 150 49 50 49 18 179 93 14 2 0 245 311 158 69 5 0 2 63 57 0 0 0 0 0 0 3 0 82 69 0 0 0 0 0 0 1 30 112 115
41 52 207 268 163 98 54 76 138 140 207 214 8 14 0 39 220 290 298 180 89 28 63 123 30 0 0 0 0 0 0 0 2 4 19 2 5 9 0 0 5 46 121 206
39 48 0 2 8 85 106 0 59 48 0 0 30 46 0 5 130 219 276 241 244 198 161 180 169 2 0 0 0 0 0 1 11 31 45 22 4 4 0 0 0 40 318 468
99 34 7 9 33 67 19 0 0 0 0 0 2 17 0 2 35 8 0 0 0 42 308 379 161 163 2 0 0 0 0 9 10 44 33 0 5 0 0 190 599 665 421 656
0 4 1 17 19 0 0 0 0 0 0 0 0 0 1 0 0 0 26 58 120 203 271 292 263 205 138 0 0 0 0 0 0 61 53 0 0 0 0 8 463 429 188 176
0 0 0 0 4 2 0 0 0 0 0 0 0 10 0 0 0 0 0 2 66 220 146 167 251 216 237 115 0 0 0 0 0 0 7 0 0 0 2 29 166 343 77 97
1 0 0 0 0 0 0 0 0 0 0 0 0 0 0 0 0 0 0 35 233 399 437 366 307 292 350 502 340 96 12 7 0 1 0 1 0 0 13 5 49 46 7 8
0 2 0 0 0 0 0 0 0 0 0 0 0 0 0 0 0 0 0 164 277 448 549 566 619 500 466 628 339 335 131 37 91 80 0 0 0 0 0 23 35 41 12 3
0 0 0 0 0 0 0 0 0 0 0 0 0 0 0 0 0 0 0 60 286 590 710 781 894 848 697 694 518 400 401 351 186 0 88 80 39 0 1 39 29 21 1 1
0 0 0 0 0 0 0 0 0 0 0 0 0 0 0 0 0 0 1 189 420 807 1055 1085 1055 1024 1035 844 576 442 293 184 211 302 667 297 54 1 27 13 9 4 1 0
0 0 0 0 0 0 0 0 0 0 0 0 0 0 0 0 0 0 222 448 725 875 826 705 845 944 742 510 270 124 33 92 0 0 240 569 132 53 6 0 0 0 1 0
0 0 0 0 0 0 0 0 0 0 0 0 0 0 0 0 14 490 714 806 816 684 451 443 447 363 456 271 140 2 0 0 0 0 0 150 551 77 12 0 0 9 0 0
0 0 0 0 0 0 0 0 0 0 0 0 0 0 0 0 294 726 877 872 784 812 634 361 372 316 239 110 4 0 0 0 0 1 0 112 635 179 142 25 1 5 1 1
0 0 0 0 0 0 0 0 0 0 0 0 0 0 0 0 7 283 572 772 973 974 1071 801 420 421 521 258 114 0 0 0 0 0 1 169 76 95 11 1 2 5 9 1
0 0 0 0 0 0 0 0 0 0 0 0 0 0 0 0 0 0 0 0 27 572 878 1126 846 659 540 405 117 0 0 0 0 3 1 9 87 54 56 16 3 5 26 16
0 0 0 0 0 0 0 0 0 0 0 0 0 0 0 0 0 72 16 15 74 363 813 947 793 621 522 317 29 0 0 0 0 1 0 1 5 86 26 59 22 1 36 66
0 0 0 0 0 0 0 0 0 0 0 0 0 0 0 11 48 144 0 0 0 0 0 16 39 75 317 265 3 0 0 0 0 0 0 0 0 1 1 0 0 1 4 4
0 0 0 0 0 0 0 0 0 0 0 0 0 0 7 0 195 98 0 10 3 0 0 0 46 221 353 108 0 0 0 0 0 0 0 0 0 0 1 1 1 1 2 5
0 0 0 0 0 0 0 0 0 0 0 0 0 0 0 85 0 0 0 8 0 0 0 19 513 656 628 109 1 0 0 0 0 0 0 0 0 0 0 0 1 1 1 4
0 0 0 0 0 0 0 0 0 0 0 0 0 0 0 0 0 0 0 0 0 0 33 105 592 744 473 153 44 27 0 0 0 0 0 0 0 0 0 0 0 0 0 8
0 0 0 0 0 0 0 0 0 0 0 0 0 0 0 0 0 0 0 0 0 0 0 86 804 793 577 280 225 210 115 0 0 0 0 0 0 0 0 0 0 0 0 10
0 0 0 0 0 0 0 0 0 0 0 0 0 0 0 0 0 0 0 1 0 0 24 140 919 977 970 596 426 421 83 13 0 0 0 0 0 0 0 0 0 0 4 9
0 0 0 0 0 0 0 0 0 0 0 0 0 0 0 0 0 0 0 1 2 0 4 531 1079 1231 1161 765 646 465 160 22 9 1 0 0 0 0 0 0 0 0 0 0
0 0 0 0 0 0 0 0 0 0 0 0 0 0 0 0 0 0 0 0 0 8 67 679 880 870 896 607 509 588 333 94 38 12 0 0 0 0 0 0 0 0 0 0

GFSCGP_con_sbcape_354.txt.gz
CAPE
15 5 21 0 3 14 10 0 6 12 21 16 13 0 24 52 60 26 59 8 0 0 0 0 0 0 0 0 3 40 14 16 9 34 49 29 5 0 76 98 139 124 87 90
0 0 0 0 4 26 11 1 9 7 42 6 18 37 25 35 42 74 63 24 19 22 46 16 0 0 0 0 0 1 11 28 8 77 120 146 150 86 12 24 149 193 148 112
1 0 3 18 38 45 2 41 36 61 105 27 17 0 0 189 252 105 59 22 0 0 33 44 4 0 0 0 0 0 10 55 101 129 111 0 0 0 0 0 0 69 273 227
0 0 0 33 60 40 53 19 58 64 140 107 0 21 0 0 60 221 352 265 142 56 2 4 55 0 0 0 0 0 11 65 106 172 131 121 132 142 128 124 9 31 92 292
0 84 67 20 0 66 29 0 32 102 2 0 5 85 15 10 23 25 94 206 280 164 104 89 48 75 0 0 0 0 4 31 71 176 181 110 124 107 67 0 0 15 72 163
9 5 0 32 24 107 0 0 0 0 0 0 0 54 12 6 49 35 24 20 72 70 34 135 90 79 13 0 0 0 0 6 34 137 108 174 80 26 0 0 0 1 53 285
0 0 0 7 12 0 0 0 0 0 0 0 0 24 39 0 0 32 82 46 44 31 190 171 325 164 121 0 0 0 0 0 0 0 24 106 8 7 4 0 2 99 309 449
0 7 3 0 5 21 0 0 0 0 0 0 0 0 18 0 0 0 0 40 2 96 59 110 212 223 168 142 0 0 0 0 0 0 0 0 0 0 0 0 0 122 545 339
0 0 0 0 0 0 0 0 0 0 0 0 0 0 0 0 0 0 0 31 15 118 380 505 489 340 298 249 177 2 0 0 0 0 0 0 0 0 0 0 0 120 94 139
0 0 0 0 0 0 0 0 0 0 0 0 0 0 0 0 14 0 0 1 0 307 620 631 606 485 425 553 459 390 182 105 33 0 0 0 0 0 0 0 0 17 70 137
0 0 0 0 0 0 0 0 0 0 0 0 0 0 0 0 0 0 0 0 43 429 537 585 628 703 702 604 442 346 321 311 196 41 2 0 0 0 0 2 0 49 51 94
0 0 0 0 0 0 0 0 0 0 0 0 0 0 0 0 0 0 0 0 33 384 561 646 813 907 959 805 521 413 284 252 145 23 249 487 51 1 1 3 1 1 5 9
0 0 0 0 0 0 0 0 0 0 0 0 0 0 0 0 0 0 0 3 189 591 878 842 880 1000 1006 824 529 313 63 9 0 0 0 54 276 1 1 1 1 10 0 2
0 0 0 0 0 0 0 0 0 0 0 0 0 0 0 0 0 0 0 204 566 888 732 537 439 591 543 520 379 219 26 0 0 0 0 0 9 15 1 1 0 0 0 2
0 0 0 0 0 0 0 0 0 0 0 0 0 0 0 0 0 0 207 482 617 680 614 385 376 241 134 173 172 28 0 0 0 0 0 1 16 359 2 0 0 0 5 4
0 0 0 0 0 0 0 0 0 0 0 0 0 0 0 0 0 186 583 667 840 791 668 540 335 135 162 206 155 3 0 0 0 0 1 1 120 468 31 3 2 1 4 9
0 0 0 0 0 0 0 0 0 0 0 0 0 0 0 0 0 109 325 439 671 600 387 454 748 649 455 349 196 61 0 0 0 0 0 0 78 95 43 8 2 3 5 3
0 0 0 0 0 0 0 0 0 0 0 0 0 0 0 0 0 0 0 0 0 0 239 520 590 672 600 372 204 49 0 0 0 0 0 1 2 128 82 6 2 2 3 3
0 0 0 0 0 0 0 0 0 0 0 0 0 0 0 0 1 20 0 0 0 15 108 151 229 445 462 274 200 41 0 0 0 0 0 2 1 3 11 57 34 24 13 19
0 0 0 0 0 0 0 0 0 0 0 0 0 0 0 7 3 1 0 3 6 0 0 0 0 0 0 3 8 42 0 0 0 1 0 1 1 4 1 1 1 1 1 4
0 0 0 0 0 0 0 0 0 0 0 0 0 0 0 6 0 0 0 0 2 3 5 0 0 5 280 266 110 209 0 0 0 0 0 0 0 1 1 1 1 2 2 2
0 0 0 0 0 0 0 0 0 0 0 0 0 0 0 0 0 0 0 0 0 2 0 0 5 175 540 424 293 470 218 223 0 0 0 0 0 1 0 4 1 1 2 2
0 0 0 0 0 0 0 0 0 0 0 0 0 0 0 0 0 0 0 0 0 0 0 0 28 300 493 505 538 728 785 110 10 0 0 0 1 1 1 3 2 2 1 13
0 0 0 0 0 0 0 0 0 0 0 0 0 0 0 0 0 0 0 0 0 0 0 0 0 109 405 605 653 840 567 165 118 48 1 0 1 2 1 1 1 2 5 15
0 0 0 0 0 0 0 0 0 0 0 0 0 0 0 0 0 0 0 0 0 0 0 0 0 157 503 847 947 1122 705 303 305 211 87 3 1 1 1 1 1 1 0 2
0 0 0 0 0 0 0 0 0 0 0 0 0 0 0 0 0 0 0 0 0 1 0 0 0 146 474 950 1114 1086 770 507 522 486 273 55 1 1 1 1 1 0 0 0

GFSCGP_con_sbcape_357.txt.gz
CAPE
225 184 192 72 65 16 52 145 192 177 129 98 186 258 236 307 281 140 103 100 116 125 148 125 101 111 143 518 666 822 873 1436 902 753 607 550 520 521 560 528 615 721 577 520
61 117 4 0 0 47 130 226 276 152 187 140 305 501 285 313 507 496 479 353 262 205 215 213 247 261 170 248 597 968 1309 1584 1284 1014 1106 756 678 863 762 608 884 1070 1139 988
76 143 0 28 178 240 235 289 220 188 302 234 348 378 209 371 578 598 534 531 538 548 653 644 508 349 249 252 348 913 1470 1640 1650 1486 1060 1042 891 994 1021 950 805 1129 1295 1440
172 49 35 74 211 220 104 107 136 190 328 257 141 249 389 50 440 673 930 786 627 583 505 530 731 950 563 296 218 675 1232 1582 1537 1758 1556 1342 1057 1114 1179 1141 1135 1074 1076 1209
165 118 218 108 49 136 93 2 69 292 212 155 283 381 384 32 300 410 479 777 959 935 882 873 776 746 895 526 219 206 952 1243 1505 1731 1628 1693 1017 1373 1394 1128 1775 1826 1571 889
80 7 3 24 19 119 0 0 0 0 223 229 0 371 301 239 384 341 385 431 566 753 865 890 884 871 950 551 263 198 706 1407 1138 1453 1615 2003 1931 1647 1004 1600 1167 1002 923 993
42 0 0 8 14 0 0 0 0 0 18 7 0 240 429 273 112 313 501 561 593 546 757 943 1078 1132 1113 939 375 286 616 1031 994 1053 1305 1706 2015 1892 1653 1460 524 941 950 882
158 0 0 0 6 7 0 0 0 0 0 0 0 301 189 191 6 6 145 497 683 488 697 793 981 1357 1386 1218 999 488 429 689 770 792 1084 1696 1739 1236 1150 752 762 78 314 949
13 0 0 0 0 0 2 0 0 0 0 0 0 0 0 26 147 129 256 429 638 347 873 1201 1233 1474 1591 1508 1436 1046 804 667 598 548 844 1164 1556 1604 1413 1189 874 518 706 633
28 32 0 0 0 0 0 0 0 0 0 0 0 0 0 70 13 221 347 505 723 491 1089 1515 1497 1276 1484 1647 1785 1660 1527 1644 1427 1058 975 931 1025 1075 1125 1213 1021 787 901 1058
14 32 0 0 0 0 0 0 0 0 0 0 0 0 0 0 0 0 37 432 583 548 1128 1557 1335 1575 1723 1836 1926 1911 1862 1962 1903 1630 1572 1501 1395 1104 951 809 696 716 824 912
0 0 0 0 0 0 0 0 0 0 0 0 0 0 0 0 0 0 0 0 53 196 1326 1571 1589 1873 2126 2129 2153 2236 2117 2030 1727 1259 1118 1095 1180 1326 1254 882 544 643 697 647
0 7 0 0 0 0 0 0 0 0 0 0 0 0 0 0 0 0 0 0 0 358 1577 1754 2009 2041 2215 2313 2305 2108 1985 1828 1270 766 687 673 640 712 529 654 520 181 222 118
0 0 0 0 0 0 0 0 0 0 0 0 0 0 0 0 0 0 0 43 246 881 1785 1909 2072 2019 2165 2192 2233 2133 1934 1698 1238 904 720 621 415 409 530 637 327 186 3 1
0 0 0 0 0 0 0 0 0 0 0 0 0 0 0 0 0 0 42 454 804 1355 1765 1862 1821 1862 1791 1771 1858 1916 1868 1708 1335 1092 923 688 396 297 936 301 106 1 0 0
0 0 0 0 0 0 0 0 0 0 0 0 0 0 0 0 0 78 376 931 1316 1716 1797 1748 1763 1746 1759 1817 1917 1861 1892 1850 1465 1190 1065 617 329 342 677 134 2 0 0 3
0 0 0 0 0 0 0 0 0 0 0 0 0 0 0 0 69 178 332 1070 1494 1669 1709 1836 1846 1938 2117 2147 2238 2049 2028 1742 1444 1160 931 650 430 411 764 178 3 6 9 9
0 0 0 0 0 0 0 0 0 0 0 0 0 24 0 0 0 0 185 677 1251 1316 1343 1211 1373 1917 2208 2066 1975 1955 1714 1675 1444 1245 897 653 516 459 583 379 19 46 55 19
0 0 0 0 0 0 0 0 0 3 40 0 0 22 100 177 246 413 335 368 712 826 841 1220 1587 1559 1756 1703 1906 1749 1692 1592 1492 1369 1023 706 574 452 726 687 379 243 102 42
0 0 0 0 0 0 0 0 0 0 42 0 0 0 80 135 145 98 21 505 769 812 837 852 664 408 484 965 973 1219 1697 1873 1790 1633 1201 841 610 320 184 322 515 262 396 530
0 0 0 0 0 0 0 0 0 0 0 0 0 0 45 185 413 22 0 0 192 565 794 850 449 179 423 1145 1353 1771 2036 2099 1972 1785 1226 956 694 478 450 619 214 19 34 85
22 71 17 0 0 0 0 0 0 0 0 0 0 0 0 26 190 183 364 75 98 155 166 213 304 616 1111 1413 1780 2012 2232 2568 1982 1661 1382 1137 936 758 546 530 464 188 151 109
0 0 22 0 0 0 0 0 0 0 0 0 0 0 0 0 0 4 34 119 101 76 175 230 296 474 817 1051 1556 1641 2542 2362 1907 1792 1663 1413 1172 942 654 436 216 289 232 97
0 0 0 0 0 0 0 0 0 0 0 0 0 0 0 0 0 2 33 65 89 135 192 195 361 632 833 1147 1201 1524 1964 2255 1840 2149 1989 1625 1369 637 689 393 202 53 302 296
0 0 0 0 0 0 0 0 0 0 0 0 0 0 0 0 10 10 44 244 339 338 317 219 500 871 1027 1282 1373 1430 1674 1996 1393 2051 1909 1544 1143 221 578 531 398 340 447 416
0 0 0 0 0 0 0 0 0 0 0 0 0 13 57 42 78 68 213 298 315 217 309 302 513 697 786 1001 1258 1879 1785 1760 1769 1720 641 643 978 626 748 557 485 41 10 7

GFSCGP_con_sbcape_360.txt.gz
CAPE
800 822 491 393 419 393 459 402 285 300 386 410 418 442 449 583 623 545 559 559 581 641 598 585 656 675 738 877 1237 1699 1894 1941 1501 1387 1285 780 648 949 810 685 590 506 513 407
691 403 290 281 281 332 332 266 116 353 464 503 350 1 247 524 788 728 677 623 625 692 764 783 760 738 737 907 1136 1636 1972 2200 2139 1593 1519 1278 712 887 1058 960 1087 1147 1142 854
551 468 328 297 384 376 80 95 63 81 473 602 577 0 0 586 687 786 808 812 769 749 795 891 971 1027 1018 1037 1027 1268 1895 2170 2628 2355 1736 1708 1523 1016 1184 1491 1421 1512 1806 1982
500 401 382 384 144 250 158 136 127 112 231 91 468 23 0 0 3 495 643 929 726 883 1055 1091 1202 1223 1294 1259 1221 1268 1626 2376 2525 2602 2608 3136 2038 1681 1140 1849 1531 1460 1905 2111
479 362 319 285 124 145 161 26 79 267 241 152 213 170 108 94 0 0 0 5 208 551 943 1127 1168 1339 1450 1541 1489 1316 1523 2051 2359 2589 2631 2390 2748 2008 1772 1637 1110 3123 1468 2137
471 396 331 235 106 154 100 65 232 320 230 145 49 294 20 64 50 6 0 0 57 236 813 1268 1440 1580 1721 1683 1617 1381 1527 1935 2229 2330 2408 2747 3609 3307 2248 2237 1856 1458 1352 1934
200 115 74 51 79 214 110 75 164 108 137 77 62 193 59 226 256 210 124 78 90 488 979 1212 1497 1683 1922 1934 1747 1473 1610 2121 2368 2299 2301 2387 2585 2951 3057 3079 2164 2496 1778 1658
95 17 5 0 0 10 25 13 64 76 70 50 107 103 204 186 329 228 281 582 635 1107 897 214 396 1210 1911 2194 2306 1909 1777 2338 2282 2218 2306 2414 2522 2314 2264 2766 2344 2019 1718 1769
79 13 0 0 0 5 58 63 0 3 0 0 17 0 4 86 120 270 570 637 784 1033 747 478 616 1404 2049 2469 2221 2064 2270 2462 2271 2089 2131 2291 2438 2464 2315 2604 2858 2127 2733 1844
342 124 0 0 0 0 0 0 2 19 1 15 46 8 10 0 7 64 43 391 511 674 898 857 940 1744 1728 1632 2023 2142 2407 2839 2936 2704 2632 2580 2698 2739 2715 2668 2542 2409 2232 1948
277 126 1 0 0 0 0 3 0 0 0 4 10 51 4 0 2 19 23 32 140 814 1152 1245 1355 1631 1738 1876 2413 2919 3214 3409 3437 3365 3197 3044 2797 2574 2387 2218 2149 2164 2227 1992
227 16 0 0 0 0 0 0 0 0 0 0 0 0 0 0 0 0 34 79 168 341 847 1395 1684 2066 2344 2513 2850 3193 3425 3559 3444 3252 2920 2475 2178 2093 1969 1780 1694 1667 1753 1842
153 0 2 1 0 0 0 0 0 0 0 0 0 0 0 0 0 0 29 59 269 520 544 1337 2073 2579 2585 2697 2921 2857 2961 2758 2967 2955 2507 2367 2125 1884 1659 1300 1348 1575 1494 1497
0 0 0 0 2 0 0 0 0 0 0 0 0 0 8 0 3 46 99 195 644 754 850 1384 2397 2807 2724 2839 3004 2919 2750 2621 2734 2651 2401 2403 2312 1898 1552 1385 1181 1543 1491 867
3 0 0 0 0 0 0 0 0 0 0 0 3 11 52 30 48 42 180 518 956 1074 1282 1774 2498 2849 2601 2731 2886 2840 2706 2809 2912 2867 2727 2674 2643 2062 1751 1665 1681 1601 847 52
0 0 0 0 0 0 0 0 0 0 0 0 1 29 71 135 143 186 284 422 956 1483 1740 2292 2603 2439 2392 2310 2350 1548 2313 2853 3122 3064 2843 2839 2745 2247 1888 1549 1552 696 65 3
0 0 0 0 0 0 0 0 0 0 0 0 3 138 254 344 420 460 411 448 753 1450 2006 2533 2329 2065 1821 1544 1455 1667 1454 2385 2974 3021 2919 2971 2838 2445 1916 1658 1464 575 93 63
0 54 0 0 0 0 0 0 0 13 26 96 132 86 115 170 237 169 695 649 905 1244 1770 1893 2014 1765 1967 1116 870 1590 1884 2352 2757 2740 2768 2830 2721 2469 1965 1486 1227 650 145 48
0 0 0 0 0 0 0 0 3 112 169 1 1 0 0 0 0 0 546 603 1049 1336 1441 1348 1343 1853 1807 1676 1519 1828 2076 2061 2267 2491 2714 2816 2684 2434 2091 1723 1608 836 439 278
0 0 0 0 0 0 15 0 0 7 77 0 0 0 0 0 0 0 766 414 360 818 1258 1288 1058 995 989 1504 1528 1514 1740 1849 2262 2673 2877 2925 2815 2534 2171 1702 1473 1479 1044 602
55 84 6 10 4 0 0 0 0 24 56 0 0 0 0 1 221 237 529 496 648 348 389 426 444 543 792 1214 1578 2055 2195 2384 2509 2874 2921 3118 2884 2545 2169 1657 1568 1522 1169 1045
60 15 16 59 116 46 0 0 0 0 0 0 0 0 0 0 1 3 85 346 428 400 345 399 483 691 1023 1221 1484 1879 2362 2481 2557 2986 2964 3039 2890 2455 1891 1775 1426 1387 1267 527
36 41 163 173 173 0 0 0 0 0 0 0 0 0 0 0 0 0 56 195 395 408 518 483 499 732 995 1051 1195 1095 2269 2487 2470 2817 2912 2944 2570 2231 1961 1826 1256 1158 1419 1348
2 0 11 62 4 0 0 0 0 0 0 0 0 0 0 5 38 220 358 631 701 700 721 617 681 753 878 959 1360 1337 1528 1875 2261 2487 2774 2640 1405 749 1644 1538 1323 793 980 997
0 0 0 0 0 0 0 0 0 0 0 2 5 25 145 209 249 282 355 509 507 535 475 533 684 748 882 930 1006 1012 1171 1272 1749 2205 2479 996 691 1805 1807 1776 1289 872 925 687
0 0 0 0 0 0 15 0 0 47 65 77 85 110 82 53 103 100 147 213 315 421 535 664 805 813 744 867 948 1031 1119 1152 1502 1805 1851 2004 1896 1196 938 1303 1192 427 105 47

GFSCGP_con_sbcape_366.txt.gz
CAPE
269 414 599 499 598 131 193 141 34 33 0 104 39 515 658 524 447 612 752 706 458 115 55 20 25 145 333 773 1501 1905 2540 3159 2992 2542 2197 2069 1708 1595 1578 1504 1813 2055 1845 2002
468 253 202 253 180 51 80 80 39 6 9 297 18 42 440 340 322 396 519 729 809 715 623 682 784 801 847 1422 1899 2709 2814 3873 3030 2680 2502 2665 2361 1921 1684 1968 2291 1962 2194 2131
116 220 347 340 7 88 0 2 27 14 0 0 0 0 0 15 129 268 337 673 678 827 871 1049 1349 1344 1223 1517 2120 2727 3156 3792 3769 3215 3047 3197 2876 3004 2879 2404 3341 2773 2361 2235
1 251 575 97 38 58 1 0 8 28 6 38 46 10 76 1 0 2 59 264 412 640 767 1343 1496 1716 1637 1686 1940 2492 3511 3487 4101 4051 3440 4124 2959 2834 2721 2882 2482 2702 3883 2832
617 308 375 122 118 0 47 0 9 61 92 4 17 51 0 0 1 5 3 25 73 148 403 583 958 1555 1602 1759 1980 2423 3753 3950 3819 4126 4132 3847 3911 3433 3739 3444 4230 3231 4148 3706
298 360 430 46 0 0 0 2 58 80 27 62 39 64 76 15 4 41 2 15 7 48 206 272 549 979 1259 1287 1744 2475 3893 4201 4352 4680 4670 4312 4546 4944 4821 4798 4971 4271 3036 3130
29 157 395 12 1 24 11 15 144 76 112 83 29 83 112 63 31 58 161 29 55 121 125 241 502 489 731 1066 1329 2274 4485 4787 4829 4669 4595 4886 5060 5056 4895 4806 4137 4160 3715 3737
61 145 204 0 0 0 7 6 28 151 23 34 15 185 103 93 40 171 100 61 86 229 222 160 184 567 848 1070 1942 2813 4696 4725 4567 4436 4676 4909 4974 4593 4606 4524 4107 3913 3797 3821
84 43 0 0 0 0 1 44 0 0 27 108 11 74 147 158 170 0 0 0 23 79 88 203 173 264 769 1171 2206 3353 4638 4845 4727 4654 4885 5020 4995 4876 4534 5264 5249 4532 4898 3907
108 93 0 0 0 0 0 0 0 3 42 128 70 89 5 11 9 2 0 0 0 5 19 75 42 127 447 1153 2925 3368 4476 4802 4828 4823 4995 4965 4971 4988 4963 4963 4739 4459 4164 4019
2 64 105 0 0 0 0 0 0 5 0 46 72 11 12 36 6 0 0 0 6 217 318 465 379 448 892 1736 2870 3375 3868 4611 4871 5266 5040 5184 5018 5050 4872 4542 4320 4082 4002 3985
97 122 113 31 0 0 0 0 0 0 0 0 0 24 84 6 0 0 0 107 174 207 264 794 1066 1423 2784 3012 3263 3832 4517 4900 5272 5252 5300 4971 4642 4640 4259 4333 4112 4226 3646 3206
123 48 23 39 0 0 1 0 0 0 1 11 25 97 31 51 8 77 88 333 561 782 766 1083 1876 2062 2998 3371 3536 3516 4117 4196 4776 5278 4776 4538 4325 4332 4150 3881 4125 4084 3595 3128
0 0 0 5 6 5 1 0 0 0 0 4 14 38 86 340 322 313 337 560 561 771 1056 1208 2181 2575 4351 4259 4384 4159 3900 3518 4390 4432 4195 4252 4286 4201 3956 4489 4211 3801 3549 3247
0 0 0 0 0 0 0 0 0 28 10 2 0 39 423 490 506 480 436 451 529 1042 1139 1517 1581 2758 3952 4134 4289 3703 3089 3472 3656 4390 4239 4486 4979 4613 4347 4385 4155 3891 3539 3003
0 1 0 0 0 0 0 3 0 0 4 16 41 380 276 221 114 135 372 345 1027 940 937 1293 1854 2445 3282 3618 3926 3868 3576 3839 3641 4125 4253 4903 4985 4873 4891 4620 4035 3441 3475 2838
2 3 0 0 0 0 9 14 3 0 0 0 6 280 153 73 11 108 282 607 640 626 633 1178 1518 2347 3188 3281 2819 857 1919 2590 3726 4518 4645 4756 4847 4462 4338 3869 3776 3536 3338 2749
4 0 10 0 12 11 5 0 2 5 68 60 210 217 123 86 17 18 76 79 173 258 500 1166 1890 2496 1950 1286 2000 2350 1833 2920 3341 3819 4282 4315 4468 4195 3948 3740 3895 3732 3247 2651
25 19 30 35 27 28 41 3 99 141 149 139 161 108 32 5 0 39 13 116 239 513 853 1035 1189 1322 1114 1347 1369 2244 2530 2696 2654 2929 3212 2842 3807 3957 3812 3562 2549 2240 1778 2510
129 213 58 150 153 248 308 49 47 100 138 30 8 0 0 0 0 2 46 0 150 406 961 928 841 810 1801 2475 2309 2682 2783 3408 3400 3770 3916 3696 3776 3795 3605 2935 2285 1257 1291 2045
50 375 248 178 225 140 9 9 0 42 218 38 4 0 0 0 48 84 8 243 397 867 892 1183 1110 1120 1816 2038 2382 2457 2938 2919 2912 3230 3076 3178 3364 3383 3424 3343 2374 1786 1428 1798
59 239 71 173 180 295 13 26 37 39 14 31 1 0 0 8 23 95 164 608 716 899 861 752 919 1287 1382 1613 1973 2302 2190 2456 2556 2235 2211 2210 2508 2806 2598 2563 2065 1297 802 486
37 20 81 130 233 297 19 11 1 0 12 0 0 0 0 22 100 152 468 690 730 734 861 627 653 667 1054 1486 1719 1659 1929 1997 2148 2131 1893 1907 2113 2061 2187 2074 1524 1676 655 1129
0 47 3 89 38 60 24 1 74 75 21 1 8 57 120 137 162 211 771 770 718 664 576 669 828 1075 1273 1479 1617 1530 1668 1847 1773 1597 1586 1520 1488 1212 1283 1479 1625 1412 846 991
0 0 0 0 16 66 22 28 41 39 78 98 143 138 156 145 247 590 683 912 855 777 1231 883 1143 1297 1464 1587 1624 1574 1647 1745 1501 1411 1400 1328 1282 1278 977 703 762 1242 816 1001
0 0 0 1 10 9 140 6 0 6 85 148 144 156 110 146 212 441 826 889 891 1139 1064 1389 1366 1423 1546 1628 1550 1760 1772 1681 1441 1319 1143 1274 1256 1169 1182 567 388 425 361 155

GFSCGP_con_sbcape_372.txt.gz
CAPE
114 0 40 450 382 642 506 402 397 18 377 219 184 275 252 46 158 229 0 0 0 0 0 0 3 9 9 49 38 14 170 229 297 633 544 603 617 466 505 554 452 271 752 1245
118 58 13 23 58 417 420 558 220 0 55 245 283 447 381 344 230 417 2 0 0 0 0 0 2 15 123 285 214 179 201 319 456 692 715 702 776 759 723 739 713 657 506 937
83 76 296 166 53 137 29 242 8 0 286 196 350 128 104 238 474 417 157 40 1 0 0 0 2 2 81 399 305 408 281 753 623 813 877 1010 1005 1102 1034 897 991 924 831 971
406 239 118 92 260 386 123 0 0 0 21 426 47 1 0 111 140 369 354 223 162 15 0 0 0 0 57 327 481 554 662 565 1085 1123 1172 1214 1401 1415 1481 1518 1389 1267 1198 1051
78 73 280 105 268 45 34 4 1 0 1 0 0 0 0 0 0 234 225 336 359 192 122 0 0 24 97 239 479 524 643 849 1077 1503 1442 1420 1575 1763 1686 1561 1593 1567 1487 1519
155 224 80 9 114 104 42 0 8 0 0 0 0 0 0 0 0 0 0 262 508 422 320 133 85 130 191 421 527 843 797 900 1261 1496 1643 1663 1674 1623 1789 1982 2172 2368 2871 1850
0 0 0 37 62 20 0 0 1 24 17 7 0 0 8 0 0 0 0 0 239 311 444 381 309 408 523 611 999 1116 1285 1485 1551 1732 1940 1593 1746 1961 2248 2290 2408 2752 3124 2917
0 6 77 38 82 3 0 0 1 25 3 2 0 9 0 0 0 0 0 0 0 0 46 147 500 668 781 831 859 1309 1593 1665 1708 2019 2354 2344 2098 1992 2274 2561 2826 2967 2818 2601
8 33 34 9 0 0 0 0 0 0 0 0 0 0 0 0 0 1 0 0 0 0 34 374 570 716 589 666 897 571 658 1630 1848 2007 2482 2903 2798 2770 2859 3039 2978 2938 2692 2370
51 48 2 0 0 0 0 0 0 0 0 1 0 0 0 4 0 5 0 0 0 5 26 57 131 203 101 363 383 138 350 1470 2022 2487 2755 3322 3545 3185 3113 3024 3095 3025 2986 2707
38 5 0 1 0 0 0 0 0 0 0 0 0 0 0 0 0 0 0 0 0 7 32 96 151 123 69 181 176 0 1912 2323 2908 3136 3100 3100 3422 3197 3086 2899 2891 2838 2623 2373
75 2 0 3 0 0 0 0 0 0 0 0 0 0 0 0 0 0 0 43 11 35 125 175 150 158 166 141 112 18 2887 3120 2948 2759 2534 1440 155 2586 3409 3384 3100 2900 2714 2554
73 64 35 0 0 0 0 0 0 0 0 0 0 0 0 0 0 0 33 18 5 2 1 0 79 1080 1138 1007 1089 1260 1423 1330 1821 940 0 1 4 803 3226 3440 3205 3019 2950 2721
110 0 0 0 0 0 0 0 0 0 0 0 0 8 0 0 1 6 20 0 0 0 0 116 375 632 1741 1804 914 334 821 763 607 26 13 39 0 425 3064 3223 2993 2899 2958 2509
3 0 0 0 0 0 0 0 0 0 0 0 1 0 0 0 13 8 1 0 0 0 85 466 1009 1350 1313 1081 625 270 19 368 82 0 0 0 140 393 664 1184 2360 2496 2307 2032
0 0 0 0 0 0 0 0 0 0 0 0 0 0 0 0 0 0 0 0 0 0 196 440 644 602 635 839 805 678 371 330 49 0 0 0 0 0 228 1095 1034 1286 1930 1798
0 0 0 0 0 0 0 0 0 0 0 0 0 0 0 0 0 0 0 0 0 82 150 420 525 557 636 332 267 50 126 159 11 0 0 1 0 68 46 380 1257 1624 1880 1121
0 0 0 0 0 0 0 0 0 0 0 0 0 0 0 0 0 0 0 18 55 48 66 128 481 615 707 652 629 196 251 443 206 107 20 151 259 504 379 1020 929 946 1161 1045
0 0 0 0 0 0 7 18 0 0 0 0 0 0 0 0 0 0 0 43 98 88 83 73 169 390 290 501 717 741 808 724 1027 755 397 743 682 661 719 670 572 640 688 407
0 0 0 0 0 0 0 15 1 0 6 0 0 0 0 0 0 0 1 23 13 55 33 0 40 30 0 1 284 179 377 254 318 702 514 467 364 474 425 397 433 644 742 604
0 0 0 0 0 0 0 0 4 3 0 0 0 0 0 0 0 0 2 5 4 1 0 0 0 0 0 0 79 56 90 89 105 717 534 577 680 624 540 523 584 648 642 428
0 0 0 0 0 0 0 0 0 0 0 0 0 0 0 0 0 3 22 4 0 0 0 0 0 0 0 0 6 24 141 145 144 332 675 654 572 499 624 547 391 396 335 265
0 0 0 0 0 0 0 0 0 0 0 0 0 0 0 0 0 4 58 10 0 0 0 0 6 0 0 17 5 44 238 189 271 407 251 219 266 253 329 285 312 314 372 301
0 0 0 0 0 0 0 0 0 0 0 0 0 0 0 0 0 0 0 7 0 8 15 20 23 15 33 0 0 106 150 140 243 186 294 273 212 209 182 166 257 312 345 363
0 0 0 0 0 0 0 0 0 0 0 0 0 0 0 0 0 0 0 0 2 19 21 39 30 27 14 7 0 0 1 84 271 320 211 92 69 144 224 270 329 309 225 228
0 0 0 0 0 1 0 0 0 0 0 0 0 0 0 0 0 0 0 0 0 0 0 3 15 13 28 6 0 0 3 122 139 126 225 154 144 169 190 179 202 212 72 39